Theta_e
293 296 295 293 293 293 291 290 288 292 293 297 302 304 306 304 303 303 303 304 305 303 305 303 304 305 306 306 306 305 303 301 300 300 300 300 299 299 299 298 298 298 298 298
292 296 296 292 294 294 294 295 295 295 294 303 307 309 307 303 302 301 302 302 303 303 303 303 304 303 302 302 300 300 299 298 299 298 298 297 296 296 296 295 294 295 294 294
285 293 293 290 292 293 293 294 296 292 297 305 304 305 305 302 302 302 302 301 299 298 297 297 297 298 297 298 298 297 297 297 296 295 294 294 294 293 293 292 292 291 291 291
285 287 281 291 298 298 294 295 298 300 300 299 297 298 298 301 304 300 300 298 296 294 293 293 294 295 295 296 296 295 294 293 293 293 292 291 291 290 290 289 288 288 288 290
283 282 288 292 295 295 293 291 297 296 297 297 297 296 292 294 296 296 295 294 292 292 291 291 291 292 292 292 292 292 292 291 291 290 289 288 287 287 287 286 286 287 288 290
282 282 280 288 297 299 297 287 297 298 296 296 296 290 287 292 293 291 291 291 290 291 290 289 289 290 289 289 289 289 290 289 289 288 287 286 285 285 285 286 287 289 289 291
282 279 287 295 300 302 288 288 297 297 295 294 290 290 289 291 290 291 291 290 290 289 287 288 289 288 286 286 286 288 288 287 287 286 285 285 285 285 286 288 288 287 289 290
283 281 281 300 299 292 293 295 296 293 291 290 290 290 290 290 289 289 288 288 288 287 286 287 287 286 284 283 285 286 286 285 284 284 284 284 284 284 286 286 287 287 288 289
287 287 293 296 295 297 299 295 291 291 292 291 290 289 288 287 287 287 287 287 286 285 285 285 285 285 282 283 284 284 283 282 283 284 284 284 284 286 286 287 286 286 287 288
289 291 291 293 294 294 294 291 292 292 291 291 288 288 287 286 285 285 286 285 285 283 283 282 283 283 283 284 284 283 282 283 284 284 286 286 287 287 286 286 286 286 286 287
288 290 292 290 291 292 292 293 292 292 291 289 288 287 286 285 284 284 284 284 283 282 282 282 283 284 284 284 284 283 283 284 284 285 285 286 286 287 287 288 288 287 287 288
289 294 292 288 291 294 292 291 291 290 288 288 288 286 285 284 284 284 282 282 282 282 282 283 284 284 285 286 285 285 284 284 285 285 285 285 285 286 289 289 289 289 289 289
295 294 293 293 293 293 291 290 290 289 288 286 287 286 285 284 285 285 282 282 281 282 283 284 284 284 286 286 286 285 284 285 285 285 285 285 285 284 283 286 289 289 289 288
294 293 289 291 289 292 292 291 291 289 288 287 286 286 285 284 283 282 281 282 282 283 283 284 284 283 286 287 286 286 285 286 285 285 285 285 285 284 284 283 283 284 287 287
292 293 292 292 291 290 290 289 287 286 286 285 286 285 285 282 281 281 282 282 281 283 283 283 283 284 286 287 286 286 286 286 286 286 285 286 285 285 285 284 284 283 284 285
292 292 292 290 290 290 289 288 286 285 285 285 284 284 284 283 282 281 282 283 281 280 282 282 283 285 286 286 286 286 286 287 287 286 285 285 285 284 284 284 283 283 283 283
289 288 290 289 289 289 288 288 287 286 286 285 284 284 283 283 282 282 283 284 284 282 283 282 283 285 286 286 286 285 285 285 284 285 285 285 284 284 284 283 283 283 283 284
294 292 292 292 290 290 289 289 288 287 286 286 285 284 282 281 280 281 283 284 284 283 283 283 285 284 284 286 287 286 285 285 284 283 284 283 283 284 283 283 283 282 283 284
293 292 292 292 292 291 289 288 287 287 287 286 285 283 282 282 281 281 282 282 281 280 282 283 284 283 283 285 286 285 285 284 283 283 283 282 282 282 282 282 282 282 283 283
292 293 292 292 292 290 288 288 287 286 286 285 284 283 282 282 281 280 282 281 281 281 282 283 283 283 282 284 285 285 284 283 282 282 281 281 282 281 282 281 281 282 282 282
293 293 291 291 290 290 289 288 287 285 285 285 283 282 282 282 281 281 281 280 280 278 281 283 283 281 282 282 284 283 282 282 281 280 280 280 280 281 281 281 281 281 281 282
292 291 290 290 289 288 289 288 288 287 286 285 285 283 282 281 280 279 282 281 279 276 279 281 280 279 282 281 283 283 281 281 280 280 279 279 279 279 280 280 280 281 281 281
291 291 290 289 288 288 288 288 288 288 286 286 284 283 281 278 278 276 278 281 278 279 279 280 280 280 281 283 282 282 281 280 280 279 279 279 279 279 279 279 280 280 281 281
291 290 290 289 289 288 286 287 288 288 288 287 285 283 282 280 281 283 284 278 279 279 280 281 281 281 281 281 281 281 280 280 280 280 279 279 279 279 279 279 279 280 281 281
291 290 289 288 287 287 287 288 287 287 287 286 285 285 283 281 280 280 281 281 280 280 280 280 280 280 281 280 280 279 279 279 279 279 280 279 279 278 279 279 279 280 280 280
289 289 289 289 289 287 287 287 286 286 286 285 285 285 285 284 285 283 282 281 281 280 279 279 279 280 280 279 279 279 279 279 278 278 279 279 279 279 278 278 279 279 280 280
288 288 287 287 287 287 287 287 286 286 287 287 286 286 286 285 285 283 282 282 281 279 279 278 277 278 277 277 278 278 278 278 278 278 278 278 279 279 278 278 278 278 279 279
Wind_Speed
2 2 3 2 9 8 6 5 8 7 9 8 10 8 5 6 7 14 12 10 7 6 5 6 6 5 5 4 6 5 6 9 8 6 6 5 6 5 5 5 7 7 9 10
5 3 4 5 6 9 4 4 1 6 2 3 7 9 7 15 13 16 14 15 12 10 10 9 7 7 7 8 8 8 9 8 7 7 7 6 6 7 6 7 8 9 10 11
3 2 2 5 4 5 5 5 4 3 2 7 6 11 7 11 13 14 13 12 14 12 11 10 10 8 10 7 7 9 8 7 7 7 7 6 7 8 8 9 10 11 11 11
4 3 2 4 4 6 14 4 1 6 7 11 13 12 13 8 11 10 10 11 12 11 11 11 9 10 6 8 8 7 7 8 9 9 9 9 9 9 9 8 10 10 11 12
6 3 1 3 3 4 4 2 2 10 14 16 17 18 12 12 11 12 11 10 11 10 9 9 10 7 6 7 7 8 9 8 9 9 10 11 11 10 9 9 10 10 10 12
4 6 7 7 3 5 5 2 4 9 15 17 4 6 2 5 10 12 11 10 10 9 8 9 7 6 8 8 7 8 9 10 10 10 10 11 11 11 9 10 11 10 11 10
3 3 5 3 4 3 6 7 9 8 6 4 6 5 9 7 11 11 10 9 7 8 7 6 6 6 8 8 9 9 10 10 11 10 11 10 10 9 10 10 10 10 10 10
3 5 2 4 1 6 6 7 10 7 11 18 17 14 11 9 10 10 10 10 9 7 5 5 7 6 8 7 9 10 10 11 11 11 9 9 10 10 10 9 10 10 11 9
3 4 4 3 0 5 10 15 7 15 11 18 16 12 10 9 9 9 9 7 5 4 3 4 7 7 9 10 10 11 11 11 10 11 10 9 9 9 7 8 7 8 8 9
3 7 5 7 10 10 13 16 14 14 14 13 17 11 10 9 7 6 5 6 6 6 7 8 8 9 7 9 10 10 11 10 8 9 9 8 6 6 7 7 7 7 7 8
6 4 11 11 9 15 16 17 18 13 11 13 14 9 9 7 7 6 5 5 4 4 4 7 9 9 10 10 9 9 9 8 8 7 8 8 7 6 7 7 7 8 8 7
5 10 9 4 5 14 18 14 13 16 12 10 11 10 8 7 6 5 4 3 4 5 7 9 10 10 11 8 8 8 8 7 7 6 7 7 7 6 7 9 13 13 13 10
11 6 15 12 11 12 16 13 12 13 12 12 8 9 7 6 5 7 5 5 5 5 7 9 9 9 10 10 10 9 8 8 7 8 7 7 8 8 9 9 13 12 12 13
20 21 12 4 8 12 16 15 15 12 10 10 10 8 8 7 6 6 6 5 4 4 8 9 10 11 11 10 9 8 8 13 7 7 7 7 7 8 8 10 11 11 12 14
10 11 14 17 15 13 14 13 13 11 9 9 7 8 8 7 6 6 5 5 6 8 9 10 10 10 11 10 9 9 7 7 7 7 6 9 7 7 7 8 8 9 10 11
15 17 16 16 15 12 12 10 13 9 8 8 8 7 7 7 5 5 5 6 8 9 8 9 9 9 9 10 10 7 7 13 10 6 7 8 8 8 8 9 9 8 9 10
19 10 12 13 12 10 8 8 10 9 8 8 7 7 6 5 4 5 7 7 7 7 7 7 9 9 8 10 9 7 6 7 9 7 8 9 9 9 9 9 9 9 9 9
12 12 9 15 13 12 10 10 9 9 8 9 8 7 6 5 4 4 5 7 7 6 8 7 8 9 9 9 8 7 6 6 7 8 8 9 9 9 9 10 10 10 10 10
12 15 13 12 12 12 11 10 8 8 8 8 7 6 5 5 3 3 3 8 8 8 8 7 12 10 9 11 9 6 7 8 8 8 8 10 9 9 9 10 10 10 10 10
13 12 14 13 11 13 11 9 9 8 6 6 6 5 5 4 3 5 6 8 6 4 6 6 7 8 8 8 12 6 7 8 8 8 8 9 9 10 9 12 11 10 10 11
14 13 13 12 11 10 10 9 9 8 6 5 5 5 5 4 4 7 7 5 6 5 6 9 8 5 4 6 7 7 7 8 8 9 9 9 10 10 10 11 11 10 10 11
11 11 11 11 10 9 7 7 7 7 6 5 5 5 5 4 5 5 4 4 3 4 4 5 4 5 5 7 6 6 7 8 8 7 8 9 9 9 10 11 11 11 11 11
9 10 10 10 10 8 7 7 7 8 7 6 5 5 4 4 4 3 3 4 2 4 3 3 6 7 8 6 6 6 7 8 8 8 8 9 9 9 9 10 10 11 11 12
9 8 7 8 10 9 7 5 6 6 5 5 5 5 5 4 3 2 2 2 4 4 4 5 6 8 7 6 7 7 7 8 8 7 8 9 7 9 9 10 10 11 11 12
8 7 8 9 9 6 6 6 6 5 5 5 5 4 5 2 3 3 2 2 4 4 4 6 7 7 6 6 6 7 7 7 7 7 7 7 8 8 8 10 10 11 11 11
8 7 7 9 7 5 5 5 5 4 4 4 3 3 3 3 3 4 3 3 4 4 4 4 4 5 6 6 6 7 6 7 8 7 8 7 8 8 8 9 10 11 11 11
5 6 5 4 3 4 5 6 5 5 5 5 4 4 5 4 4 4 4 3 3 3 3 4 4 5 5 5 6 6 6 6 8 7 8 7 7 7 9 8 9 9 10 11
Wind_Direction
35 113 111 150 140 160 163 183 148 206 182 187 187 169 113 49 82 96 85 83 90 95 106 91 92 109 126 86 51 53 65 59 53 55 53 46 33 11 350 343 331 316 306 301
33 5 13 74 103 114 95 122 347 114 150 97 98 92 89 89 82 88 93 85 76 67 62 56 52 51 52 47 44 58 63 58 44 34 30 16 0 338 321 315 311 309 299 296
163 20 124 56 271 120 98 64 121 178 214 137 103 90 86 98 96 96 92 86 83 65 60 49 48 51 50 46 50 53 53 46 30 16 1 345 327 316 311 314 311 308 303 301
125 84 151 262 293 143 108 68 118 90 81 92 101 82 56 27 97 79 71 83 79 80 60 47 39 41 38 38 38 39 35 20 6 353 338 327 317 311 310 309 304 298 296 292
126 121 85 45 227 162 141 345 336 129 121 117 112 88 44 32 65 88 85 75 68 71 66 52 39 20 30 32 25 20 11 354 341 331 322 321 316 313 309 305 304 300 297 294
138 133 195 221 213 144 127 317 168 148 143 146 130 92 120 37 72 74 67 60 61 54 52 45 18 5 25 20 13 2 346 333 328 324 319 314 309 309 312 306 300 305 297 289
111 122 288 211 174 191 137 233 142 129 105 83 88 111 126 98 76 71 72 72 69 62 61 36 11 10 21 7 0 334 326 324 322 321 314 303 306 309 305 302 298 296 297 297
91 96 211 12 100 168 174 78 112 88 109 101 107 103 101 92 81 71 63 50 44 48 44 23 4 9 1 351 337 333 331 325 320 314 312 310 302 297 294 298 305 309 311 309
146 196 302 269 301 70 131 117 108 108 108 115 111 105 102 94 82 71 62 53 41 46 33 19 5 7 359 345 339 330 324 320 318 318 308 289 283 302 311 311 309 309 311 312
114 353 25 75 81 77 92 98 101 106 115 115 116 116 108 97 88 84 72 56 34 28 19 4 355 353 338 329 332 333 328 318 314 314 307 305 314 312 315 316 312 309 310 315
82 94 93 45 74 100 90 93 92 82 92 109 110 98 110 102 89 78 65 46 43 32 14 9 3 2 351 341 337 327 320 314 312 308 320 324 325 317 310 301 299 307 310 309
167 173 115 101 97 109 100 100 101 107 90 75 100 106 106 98 94 94 68 45 36 23 33 21 15 8 1 350 337 324 319 323 326 331 330 327 326 321 308 307 314 313 310 314
137 111 99 104 90 99 100 101 95 97 103 110 96 109 103 105 103 76 70 47 36 31 26 13 4 356 349 349 346 336 334 333 334 343 343 343 344 341 339 340 334 330 328 325
118 111 85 72 113 99 101 100 97 94 94 103 108 100 103 96 83 72 50 32 26 35 30 16 10 3 352 342 342 344 346 352 351 350 348 347 346 346 341 342 339 337 338 336
80 64 104 111 103 104 109 116 105 104 110 103 99 106 107 104 81 68 42 33 31 38 28 17 11 1 348 342 347 345 346 347 349 350 348 352 346 345 341 338 336 331 330 341
99 107 113 115 124 122 119 116 112 120 121 114 110 104 104 104 91 69 46 43 34 26 10 8 6 353 349 354 350 348 348 349 355 348 350 357 356 356 353 348 342 340 341 342
112 114 122 121 129 134 126 123 123 129 123 118 120 115 108 105 92 66 49 41 36 31 17 359 344 355 352 356 354 351 350 354 356 1 7 1 357 356 350 347 346 343 341 341
132 135 133 138 137 128 120 116 118 122 127 127 117 105 98 85 78 71 50 31 30 36 23 352 348 360 9 350 357 350 353 2 5 9 4 3 357 356 353 349 348 345 343 344
115 118 115 114 121 122 123 122 119 121 128 129 121 119 111 98 78 65 52 44 33 21 9 350 5 7 8 4 13 352 3 10 12 10 8 3 3 358 355 351 347 348 346 347
105 106 108 109 113 120 120 122 124 118 111 107 111 114 107 97 83 86 66 55 34 360 356 354 12 10 354 356 3 6 6 12 15 11 12 8 5 358 356 355 349 349 350 350
119 119 116 115 116 121 125 132 128 120 120 119 118 125 137 138 101 74 59 47 6 359 18 28 22 357 355 5 13 21 13 14 19 17 10 5 0 360 357 353 350 352 349 348
126 123 122 122 121 117 122 120 119 127 134 131 131 129 129 98 86 73 58 46 345 337 26 25 5 358 12 8 7 19 17 20 19 13 12 8 3 356 354 352 352 351 350 348
126 130 129 129 134 132 123 136 144 148 154 154 133 119 98 103 95 92 65 359 29 26 29 14 16 19 8 10 13 14 17 22 22 16 12 6 0 353 351 351 349 349 349 349
124 127 124 116 118 128 142 162 149 150 145 138 125 122 124 109 88 77 81 19 51 46 29 22 26 19 13 20 18 14 15 14 10 10 10 4 359 354 353 349 347 347 348 349
129 120 125 135 146 164 157 148 137 143 143 135 133 129 123 126 132 167 149 86 57 55 40 22 25 14 23 19 16 17 17 17 9 0 354 354 356 352 354 350 347 343 345 346
140 151 162 167 167 160 157 150 158 161 147 154 160 155 141 131 122 124 117 100 78 61 49 29 20 16 16 10 15 19 19 15 13 1 351 349 351 350 351 348 345 347 346 343
104 111 112 107 140 160 163 164 157 178 182 175 174 173 165 155 145 137 122 104 83 68 52 37 24 21 19 16 20 18 16 16 14 5 353 347 348 349 349 344 342 340 344 343